Theta_e
323 321 319 320 320 316 321 325 323 325 322 325 326 328 329 333 331 330 334 335 333 326 328 328 326 330 332 329 321 312 312 312 316 315 313 312 314 317 319 319 313 312 320 321 321 321 319 319 322
323 320 319 322 318 320 318 318 324 323 328 328 328 331 331 333 335 335 335 335 328 324 327 325 325 329 332 329 318 311 311 310 327 329 316 312 310 311 311 311 312 315 317 319 319 316 315 318 319
322 320 319 316 314 318 318 322 322 324 326 322 330 331 333 335 335 334 335 333 330 324 325 320 321 331 330 328 318 310 310 311 328 330 318 314 311 311 311 313 318 317 318 318 314 314 317 319 321
320 319 318 317 319 315 318 321 322 320 321 324 330 330 334 335 334 335 334 329 326 326 318 319 321 329 329 326 316 311 311 310 317 329 322 314 311 310 310 310 311 310 311 311 313 316 317 317 317
319 319 317 318 316 316 317 322 320 319 319 324 325 330 333 335 335 335 334 333 325 320 316 318 321 330 328 321 314 313 312 310 311 313 311 311 310 310 311 315 310 310 310 311 314 316 315 315 316
317 317 317 320 316 318 320 322 320 319 321 327 331 332 334 334 335 335 335 328 322 315 315 317 321 330 327 319 315 314 313 313 312 312 312 315 316 314 314 312 310 310 310 311 313 314 314 314 314
316 315 318 318 315 319 318 320 318 320 324 324 330 329 333 335 335 334 336 332 316 313 314 316 326 329 330 320 317 316 315 314 314 313 313 314 316 317 314 313 312 311 310 311 311 312 313 313 313
318 315 318 315 314 318 316 318 320 321 317 326 324 329 333 335 335 334 331 322 315 313 314 315 321 325 326 319 319 318 318 317 317 316 314 314 314 315 314 313 312 312 311 312 312 312 312 313 314
317 315 318 319 314 316 316 315 317 318 322 323 327 326 326 335 335 334 332 323 316 315 315 315 315 317 317 318 319 319 319 319 319 319 318 317 316 315 314 313 313 314 313 312 313 313 315 315 316
314 315 318 317 313 315 316 316 317 319 323 327 327 326 329 335 335 333 331 328 317 317 317 317 317 317 318 318 319 320 320 321 321 322 321 321 321 319 316 316 315 315 315 315 314 315 316 317 318
314 314 317 318 316 316 316 315 317 318 318 325 326 327 332 335 335 334 332 328 319 318 319 318 317 318 318 319 320 320 321 321 322 323 323 323 322 322 322 320 319 319 318 318 316 317 318 318 319
313 314 314 316 316 316 314 316 315 318 318 319 322 321 331 333 334 334 334 331 324 319 320 319 319 319 319 320 320 321 321 322 322 323 323 324 324 324 324 323 323 322 321 320 319 319 319 320 321
314 314 314 315 315 316 316 314 314 317 316 319 324 326 331 332 333 333 333 333 329 325 322 322 321 321 321 321 322 322 322 323 323 324 324 324 325 325 325 325 325 324 324 322 321 321 321 321 321
316 316 314 314 314 315 314 313 314 316 316 323 325 326 330 331 331 332 333 333 333 332 331 327 326 325 326 325 324 324 324 325 325 325 325 325 325 325 326 326 325 325 325 325 324 323 323 322 321
319 318 315 312 314 313 314 314 312 315 317 325 327 327 329 331 331 330 330 331 331 330 332 330 328 329 327 327 327 327 327 327 327 327 326 326 326 326 326 326 325 323 320 321 322 322 322 322 323
317 311 312 311 312 312 313 313 312 314 318 328 329 329 330 329 329 330 331 331 331 330 331 331 331 330 330 329 328 329 329 329 328 327 327 327 327 326 326 325 325 324 324 324 323 323 323 322 322
313 315 309 312 311 311 311 312 311 313 318 327 329 329 329 328 330 329 330 330 330 330 330 332 332 331 330 331 330 329 330 330 328 329 328 329 329 324 325 325 325 325 325 325 323 323 321 321 321
315 311 311 311 311 310 311 311 310 311 316 321 325 327 327 326 323 325 328 330 330 329 330 332 332 332 332 332 331 331 329 329 329 328 327 327 327 327 327 326 327 325 324 324 323 323 322 322 322
311 311 312 310 309 310 309 310 309 309 309 313 321 324 325 324 322 324 325 328 329 330 331 332 333 333 333 333 332 332 329 330 329 328 328 327 327 325 325 325 324 324 323 324 323 323 323 322 323
309 311 311 310 309 310 308 309 308 307 308 310 313 315 317 321 324 325 327 329 329 330 330 331 331 333 332 332 330 330 329 325 328 327 327 327 326 325 325 325 325 324 324 323 323 323 325 323 325
309 311 310 312 309 309 309 309 310 309 309 310 311 311 311 312 315 321 324 324 327 328 328 329 329 330 331 330 330 332 330 328 326 326 326 326 325 325 325 325 325 324 323 322 323 323 323 324 322
312 308 309 309 309 310 308 309 306 307 308 307 310 311 312 312 313 315 319 323 326 327 328 329 329 330 330 330 330 332 329 328 326 325 325 325 326 326 325 324 323 323 322 321 322 322 321 320 320
311 308 309 309 308 308 307 306 305 305 307 307 308 312 312 312 312 314 314 316 324 328 328 329 329 329 330 330 331 330 329 328 325 325 325 324 324 324 323 322 322 321 321 321 320 320 319 318 317
308 308 307 306 306 308 307 307 306 304 306 307 310 311 313 313 312 312 312 313 315 321 326 327 328 328 329 330 331 330 329 328 326 324 324 323 323 322 321 321 321 320 320 320 319 318 316 314 311
309 309 310 310 310 311 304 304 311 305 303 304 306 310 312 312 312 312 312 312 312 312 312 312 313 319 324 328 330 332 329 327 326 325 324 322 322 321 320 320 319 318 317 316 314 310 308 306 304
308 310 309 309 308 308 304 306 306 304 306 307 308 309 310 311 311 312 312 312 312 312 312 311 311 311 311 313 324 331 332 326 326 324 322 321 320 319 319 318 314 312 310 308 306 303 300 298 297
307 307 307 307 298 306 305 304 304 305 303 306 308 308 309 310 310 311 311 311 311 311 311 311 311 311 310 309 317 329 329 326 325 322 321 319 319 319 314 310 309 307 304 301 299 297 296 296 296
308 307 309 307 307 307 306 305 306 305 307 305 306 308 309 309 310 310 310 311 311 311 311 311 312 310 310 311 317 329 327 326 323 321 318 318 317 311 309 306 303 301 298 297 296 296 296 295 295
306 307 307 308 308 308 306 306 302 305 307 306 306 308 309 309 310 311 311 311 311 310 311 313 313 310 312 318 325 328 327 326 322 319 318 314 309 307 303 301 299 297 296 296 296 295 295 295 294
307 307 309 311 309 304 306 306 305 303 303 306 307 309 310 310 311 311 311 310 310 310 312 314 313 313 317 321 324 326 326 324 319 314 311 308 306 302 300 297 296 296 296 296 296 295 295 294 294
Wind_Speed
6 9 7 3 3 5 1 3 2 2 2 4 8 6 7 7 3 3 19 14 19 19 17 13 11 12 11 12 11 11 11 13 14 14 14 13 11 9 8 7 8 12 16 15 14 12 12 12 12
6 6 4 2 4 2 4 3 5 3 13 18 14 9 6 3 5 16 19 15 20 18 15 11 11 12 11 11 11 11 12 13 18 12 13 15 15 14 13 12 12 15 16 16 14 11 11 12 12
6 5 2 4 3 3 5 4 5 9 16 2 6 9 4 5 9 23 14 18 20 16 13 14 13 14 12 10 9 10 12 14 18 11 12 15 14 14 13 15 15 15 14 15 13 12 12 11 11
1 2 3 3 3 4 5 6 7 9 4 4 15 7 6 4 17 13 18 18 19 17 15 15 17 16 13 10 10 10 13 13 14 14 13 13 13 14 13 13 12 13 12 12 12 11 11 9 9
1 1 3 2 3 2 3 9 12 5 4 8 4 4 5 13 8 15 16 18 18 16 15 16 16 15 13 11 11 11 13 13 13 13 11 12 12 12 12 13 14 12 12 13 12 10 9 8 8
2 1 4 2 3 1 2 12 8 4 7 8 9 8 6 11 15 17 17 17 15 16 19 19 17 15 13 12 12 12 13 14 13 12 10 11 12 12 12 12 11 11 12 12 11 9 7 7 7
4 3 5 4 2 1 5 10 7 8 11 5 19 4 6 16 19 17 16 16 16 17 19 19 19 16 13 12 12 12 13 13 12 11 10 10 11 12 13 12 11 11 11 10 10 8 6 6 6
2 4 5 4 5 4 5 9 10 15 3 17 12 7 8 25 25 20 17 18 16 18 19 19 19 15 13 12 11 11 12 12 11 10 10 9 9 9 10 11 11 10 9 9 8 8 6 5 5
1 3 3 5 7 4 10 4 9 6 14 8 9 7 14 28 29 26 21 19 19 19 19 19 19 17 13 11 11 10 11 10 10 9 9 8 8 7 8 8 9 9 8 7 7 6 6 6 6
3 2 8 6 6 6 14 12 14 7 9 5 9 10 27 31 31 30 28 25 24 22 22 19 18 17 15 13 12 11 10 9 8 8 8 8 7 7 7 7 7 7 7 6 5 6 6 6 6
3 4 3 4 7 9 17 12 10 12 3 10 17 22 36 34 32 29 28 25 24 22 21 20 17 17 15 14 12 11 9 8 7 6 6 6 5 6 5 5 6 5 5 5 5 5 6 6 6
4 2 6 5 4 12 10 15 8 15 6 15 19 22 40 37 35 32 29 27 25 24 21 20 18 16 16 14 12 10 9 7 6 5 5 4 3 3 4 3 3 3 3 4 3 3 4 4 5
3 6 7 10 7 9 11 6 8 15 7 14 23 33 39 37 35 31 27 25 24 23 22 20 19 17 16 15 14 12 10 8 8 6 5 3 2 2 0 1 1 2 2 2 2 3 4 5 7
4 19 17 8 6 7 8 2 6 16 11 21 28 36 37 36 35 32 30 28 26 22 21 20 18 17 16 15 14 13 11 11 10 8 7 6 5 4 3 2 2 3 3 2 1 2 3 5 6
8 9 13 9 4 3 7 1 6 11 14 27 31 34 35 36 34 34 31 30 26 23 20 20 19 18 18 16 15 14 13 13 11 10 10 8 7 7 6 5 4 3 2 3 3 4 5 6 8
4 5 4 5 6 3 5 9 7 13 20 30 32 34 34 35 36 33 32 29 27 23 23 20 19 19 19 18 17 15 15 14 12 10 10 12 11 9 8 7 5 5 4 5 6 7 7 9 12
6 10 6 6 7 3 4 7 7 17 22 30 32 33 32 31 35 35 32 31 28 25 22 22 21 19 17 17 18 18 17 16 13 12 12 11 10 10 9 8 7 6 6 6 7 9 12 13 15
9 8 4 7 5 2 4 7 2 19 23 30 32 32 31 31 33 32 32 32 30 26 24 23 23 21 18 18 19 20 19 18 19 18 17 15 13 11 8 6 6 9 10 10 11 12 14 16 18
5 7 5 4 3 5 8 8 9 13 18 20 29 31 32 32 29 28 27 28 30 30 29 29 30 27 26 23 23 24 24 23 24 22 21 19 16 13 13 12 11 13 13 14 14 15 17 16 18
8 7 6 1 1 3 3 11 4 8 14 29 32 33 34 32 32 31 31 33 35 33 32 33 30 30 28 27 25 24 22 20 23 21 20 18 16 14 13 14 15 15 16 15 16 17 19 20 19
10 11 5 4 4 1 3 7 4 6 15 15 26 29 31 32 34 33 34 33 35 37 34 32 30 30 29 26 25 25 21 18 19 21 20 17 15 14 17 17 17 18 18 17 17 16 16 14 16
17 4 6 5 5 5 4 5 6 7 10 9 27 27 30 31 35 33 34 32 33 35 34 34 33 32 31 28 26 27 24 22 18 18 16 16 19 20 20 19 19 18 17 17 17 16 16 19 20
11 6 6 4 3 3 2 1 7 1 10 10 21 32 34 32 33 35 34 32 32 33 34 35 35 35 34 33 30 28 26 22 17 19 20 20 20 19 18 17 16 15 15 14 15 15 15 15 16
7 4 6 4 2 3 8 7 5 7 8 9 28 36 40 34 34 33 32 32 33 34 34 34 34 34 35 35 33 31 29 25 20 21 21 20 20 17 15 14 14 12 12 11 13 14 13 13 12
9 8 2 1 2 9 0 4 13 5 8 8 13 33 42 37 36 37 37 35 33 33 33 34 36 38 36 34 34 34 30 26 25 24 22 21 19 17 15 15 16 14 13 10 9 8 8 8 8
7 10 5 7 4 2 2 7 6 9 11 22 20 20 27 37 35 36 36 35 33 32 32 31 32 34 37 37 34 35 34 29 26 22 20 20 18 17 16 15 12 9 8 7 6 6 7 7 8
5 7 6 6 2 3 5 7 9 5 9 12 18 17 24 37 40 36 34 33 31 30 29 28 27 28 30 34 34 35 35 30 24 22 21 21 20 18 15 13 11 9 7 6 6 5 6 7 9
9 10 3 2 4 4 4 5 5 5 11 12 11 28 27 34 39 36 32 30 28 26 24 23 23 23 25 28 31 36 34 32 26 24 23 23 20 18 16 13 11 9 7 5 4 5 7 9 11
3 4 2 3 5 6 1 6 9 14 17 14 14 19 24 30 32 30 28 26 24 24 24 23 23 23 24 26 31 33 34 30 25 23 24 22 21 19 16 13 10 8 6 5 5 6 9 11 13
2 6 12 7 9 1 3 7 3 9 9 11 11 16 20 25 27 26 25 25 25 24 23 24 25 26 27 28 31 33 31 28 26 26 25 23 21 18 15 12 10 7 6 5 7 8 10 13 14
Wind_Direction
283 319 340 340 51 63 253 222 150 157 75 72 112 129 132 72 125 191 139 151 165 162 155 144 132 124 119 105 87 88 99 107 101 97 102 113 123 135 130 110 106 91 97 100 100 99 95 92 83
281 327 348 50 84 61 267 267 188 212 135 106 86 92 56 81 121 141 148 155 168 165 160 158 151 136 123 107 93 100 104 107 99 101 98 99 100 99 106 107 99 95 98 100 104 107 97 94 82
288 349 13 89 98 184 207 198 169 142 144 104 100 76 78 116 149 146 145 153 168 166 162 150 149 145 133 117 102 104 107 105 106 109 97 99 100 98 97 100 97 101 97 101 107 103 99 93 85
295 74 64 89 229 246 197 185 167 142 141 120 121 69 90 107 144 149 147 156 160 164 163 157 153 150 139 119 110 108 108 113 120 116 99 97 97 99 97 95 88 88 95 102 106 106 97 90 80
140 105 70 53 265 272 241 178 164 135 107 133 136 152 98 158 159 153 154 163 169 164 164 156 156 150 141 125 118 115 115 116 116 108 95 87 92 94 91 89 80 83 92 101 110 108 96 79 65
123 110 80 220 249 267 131 168 158 119 127 138 118 109 129 172 163 154 157 161 169 171 162 158 155 154 144 132 123 119 113 106 102 103 96 86 89 91 91 87 85 87 96 98 106 105 85 65 47
134 104 181 178 216 121 194 181 168 145 137 172 141 94 143 173 168 156 167 171 168 171 162 160 157 157 153 142 127 117 108 102 101 100 98 93 86 86 81 77 77 79 86 92 94 95 82 50 31
163 105 145 182 181 219 177 159 172 154 135 148 151 164 171 179 164 159 162 167 170 170 167 165 166 162 157 150 135 123 112 107 105 101 99 97 91 84 79 72 74 78 82 90 88 83 72 58 37
125 73 174 182 155 222 166 136 156 160 144 176 203 188 178 168 167 166 166 170 173 173 172 172 171 168 162 155 146 139 126 118 112 107 103 102 98 89 82 76 72 71 78 84 83 77 70 59 46
97 131 204 196 189 190 174 164 163 153 151 188 185 160 164 169 175 174 174 177 177 177 174 174 173 169 163 165 158 149 142 134 125 114 109 104 95 83 79 75 70 67 67 69 77 73 61 54 44
4 200 236 247 246 195 172 163 172 151 207 198 180 171 170 175 182 186 178 184 179 179 178 176 179 174 171 170 171 165 160 153 146 132 119 108 101 91 83 77 71 66 63 64 67 60 47 44 36
348 318 315 307 257 172 175 161 168 174 200 210 190 188 175 180 187 192 188 183 185 186 184 183 183 185 178 179 178 181 178 174 170 164 156 141 113 94 79 75 71 61 53 52 49 45 38 32 25
186 321 334 318 286 168 163 197 184 195 205 183 176 176 180 185 190 195 195 187 190 192 189 191 193 191 192 189 189 191 192 193 197 196 193 185 183 172 142 21 3 7 8 14 18 19 11 2 356
328 325 330 314 299 182 157 149 179 202 187 173 177 181 187 192 194 194 199 198 195 198 201 199 203 202 203 199 201 201 204 209 215 220 218 220 224 234 248 254 280 297 277 261 301 325 334 341 342
321 331 325 277 228 219 145 55 236 189 190 179 185 187 192 199 199 204 202 204 202 200 203 206 208 207 209 212 212 214 214 220 224 228 230 236 240 241 246 253 249 277 327 287 295 306 316 325 337
48 311 288 291 176 200 154 233 234 195 182 185 191 195 199 202 206 208 212 212 213 211 210 213 214 215 219 220 222 222 223 226 228 234 236 240 236 239 245 254 260 269 291 311 317 324 329 332 329
216 213 207 276 211 142 156 244 227 193 192 195 198 202 206 208 210 210 215 219 218 220 217 217 219 220 226 230 233 235 233 235 239 236 238 234 246 234 235 246 263 279 296 313 311 307 313 315 313
178 210 218 195 206 172 185 255 261 194 196 205 207 208 212 211 211 209 212 220 223 222 219 222 228 228 230 233 235 237 242 228 230 235 240 248 249 252 262 264 270 280 287 286 291 290 296 303 302
200 187 210 228 175 151 209 229 237 206 206 213 216 215 217 218 217 211 209 211 218 222 224 226 227 228 228 228 228 226 225 231 232 234 241 243 246 248 253 259 264 277 283 283 287 290 297 297 306
247 203 205 297 36 147 167 244 257 189 216 217 217 221 223 222 221 217 214 217 222 223 227 227 227 227 227 230 234 236 235 245 230 236 239 240 242 248 252 262 266 269 273 276 281 281 288 296 300
236 217 204 183 128 35 118 291 226 231 231 242 231 231 232 229 221 217 217 220 223 224 223 224 225 226 226 231 231 233 231 235 231 229 230 237 243 248 253 256 253 262 268 271 275 277 281 306 309
239 212 168 147 131 211 155 265 255 228 232 211 233 229 232 229 223 218 218 216 218 223 223 223 224 226 227 228 227 229 232 234 238 230 237 239 236 239 246 252 255 258 265 267 272 273 288 286 296
234 164 174 175 167 128 199 180 258 106 241 241 236 230 231 230 224 219 217 218 216 218 221 223 224 227 228 229 229 230 231 237 234 227 225 231 234 241 249 254 253 255 258 262 269 274 280 280 280
163 82 46 57 79 259 210 182 244 196 203 228 233 234 231 227 223 220 219 217 218 219 222 224 227 228 230 230 227 224 231 234 231 230 228 229 235 239 240 245 249 251 252 255 254 266 273 278 288
178 142 207 228 186 231 229 201 239 227 236 228 229 235 231 222 220 218 217 216 219 223 229 232 233 233 231 227 224 221 221 234 236 235 235 228 226 227 228 235 237 238 239 245 254 263 276 286 294
171 187 171 183 209 229 36 232 243 223 257 248 252 250 238 219 216 216 217 219 222 228 234 236 235 234 231 228 222 216 216 223 230 232 225 222 223 224 222 232 217 213 221 227 241 259 274 286 300
186 198 180 97 17 61 208 283 301 262 274 254 243 238 224 215 212 214 218 223 228 235 239 238 233 230 225 222 216 210 216 211 217 215 212 214 210 215 210 202 198 199 208 229 249 264 285 299 309
188 157 141 50 142 246 264 280 234 267 235 240 227 229 222 211 208 211 216 222 226 231 233 230 224 222 220 213 210 207 210 211 214 219 201 202 204 196 194 195 193 203 216 228 253 285 300 310 316
157 171 106 119 157 194 241 259 212 213 219 228 231 227 222 210 205 206 213 221 227 225 223 220 215 211 210 203 202 203 207 216 211 212 198 194 191 189 189 195 203 206 217 239 270 298 310 314 319
327 184 193 200 212 210 171 260 241 239 270 275 250 235 227 215 207 208 216 220 219 218 217 213 207 202 202 197 198 203 210 210 204 191 188 188 191 189 195 198 202 211 232 267 293 302 311 315 318